(298895) = 2002 CZ265 = 2004 TD43

Discovered at Kitt Peak on 2004-10-04 by Spacewatch.

Orbit

Orbit type: Main Belt

Note: WebGL enabled browser required.

epoch2024-03-31.0
epoch JD2460400.5
perihelion date2023-02-19.20817
perihelion JD2459994.70817
argument of perihelion (°)100.25041
ascending node (°)322.20285
inclination (°)2.16881
eccentricity0.1048199
perihelion distance (AU)2.1088267
Tisserand w.r.t. Jupiter3.5
ΔV w.r.t. Earth (km/sec)9.0
semimajor axis (AU)2.3557570
mean anomaly (°)110.61433
mean daily motion (°/day)0.27258890
aphelion distance (AU)2.603
period (years)3.62
P-vector [x]0.46204009
P-vector [y]0.79814641
P-vector [z]0.38662806
Q-vector [x]-0.88655571
Q-vector [y]0.42708104
Q-vector [z]0.17782226
absolute magnitude17.74
phase slope0.15
uncertainty0
referenceMPEC 2024-F14
observations used344
oppositions14
arc length (days)8610
first opposition used2000
last opposition used2024
residual rms (arc-secs)0.76
perturbers coarse indicatorM-v
perturbers precise indicator003Ek
first observation date used2000-08-20.0
last observation date used2024-03-17.0
computer nameMPCLINUX
JD of orbit computation2456376.468986
perihelion JD uncertainty (days)1.2296E-04
argument of perihelion uncertainty (°)1.0205E-04
ascending node uncertainty (°)9.5798E-05
inclination uncertainty (°)5.3272E-06
eccentricity uncertainty 2.8287E-08
perihelion distance uncertainty (AU)7.0379E-08
Minimum Orbit Intersection Distances (in AU)
for orbit epoch: 2460400.5, reference: E2024-G02
Mercury1.79845
Venus1.38871
Earth1.12341
Mars0.55654
Jupiter2.64742
Saturn6.89204
Uranus16.0106
Neptune27.6611

Observations

361 total observations over interval: 2000 08 20.29250 – 2024 03 17.516448
These data are available for download (format description).

Date (UT) J2000 RA J2000 Dec Magn Location Ref
2000 08 20.29250 22 17 15.77 -10 05 42.1 20.9 V 691 – Steward Observatory, Kitt Peak-Spacewatch MPS 118524
2000 08 20.32217 22 17 13.96 -10 05 49.7 21.3 V 691 – Steward Observatory, Kitt Peak-Spacewatch MPS 118524
2000 08 20.35203 22 17 12.20 -10 05 57.0 21.4 V 691 – Steward Observatory, Kitt Peak-Spacewatch MPS 118524
2002 01 07.41729 09 59 47.12 +13 00 10.3 21.5 V 691 – Steward Observatory, Kitt Peak-Spacewatch MPS 118372
2002 01 07.43853 09 59 46.58 +13 00 11.9 21.9 V 691 – Steward Observatory, Kitt Peak-Spacewatch MPS 118372
2002 01 07.45966 09 59 46.02 +13 00 13.6 21.4 V 691 – Steward Observatory, Kitt Peak-Spacewatch MPS 118372
2002 02 07.23482 09 35 06.06 +14 33 27.8 20.5 V 691 – Steward Observatory, Kitt Peak-Spacewatch MPS 54768
2002 02 07.25691 09 35 04.60 +14 33 33.3 20.4 V 691 – Steward Observatory, Kitt Peak-Spacewatch MPS 54768
2002 02 07.27906 09 35 03.14 +14 33 38.6 20.4 V 691 – Steward Observatory, Kitt Peak-Spacewatch MPS 54768
2002 02 10.24269 09 31 55.63 +14 45 17.7 19.9   704 – Lincoln Laboratory ETS, New Mexico MPS 54768
2002 02 10.25683 09 31 54.75 +14 45 21.2 19.6   704 – Lincoln Laboratory ETS, New Mexico MPS 54768
2002 02 10.27388 09 31 53.58 +14 45 24.3 20.1   704 – Lincoln Laboratory ETS, New Mexico MPS 54768
2002 02 10.28958 09 31 52.58 +14 45 28.1 19.3   704 – Lincoln Laboratory ETS, New Mexico MPS 54768
2002 02 10.30417 09 31 51.59 +14 45 31.8 20.0   704 – Lincoln Laboratory ETS, New Mexico MPS 54768
2002 02 12.30442 09 29 45.38 +14 53 17.0 20.0   704 – Lincoln Laboratory ETS, New Mexico MPS 54768
2002 02 12.31855 09 29 44.44 +14 53 17.6 20.1   704 – Lincoln Laboratory ETS, New Mexico MPS 54768
2002 02 12.33270 09 29 43.54 +14 53 22.2 20.0   704 – Lincoln Laboratory ETS, New Mexico MPS 54768
2002 02 12.34685 09 29 42.63 +14 53 25.2 19.8   704 – Lincoln Laboratory ETS, New Mexico MPS 54768
2002 02 12.36102 09 29 41.72 +14 53 27.6 20.7   704 – Lincoln Laboratory ETS, New Mexico MPS 54768
2004 10 04.34583 02 20 01.86 +17 37 35.8 20.5 V 691 – Steward Observatory, Kitt Peak-Spacewatch MPS 117736
2004 10 04.38015 02 20 00.39 +17 37 31.9 20.6 V 691 – Steward Observatory, Kitt Peak-Spacewatch MPS 117736
2004 10 04.40816 02 19 59.19 +17 37 29.3 20.9 V 691 – Steward Observatory, Kitt Peak-Spacewatch MPS 117736
2004 10 07.34619 02 17 55.54 +17 31 45.9 20.2 V 691 – Steward Observatory, Kitt Peak-Spacewatch MPS 117736
2004 10 07.37386 02 17 54.23 +17 31 42.2 20.2 V 691 – Steward Observatory, Kitt Peak-Spacewatch MPS 117736
2004 10 07.40010 02 17 52.98 +17 31 38.8 20.3 V 691 – Steward Observatory, Kitt Peak-Spacewatch MPS 117736
2004 10 11.35587 02 14 45.52 +17 21 33.4 20.3 V 691 – Steward Observatory, Kitt Peak-Spacewatch MPS 118524
2004 10 11.38718 02 14 43.86 +17 21 28.0 20.1 V 691 – Steward Observatory, Kitt Peak-Spacewatch MPS 118524
2004 10 11.41491 02 14 42.42 +17 21 22.9 20.1 V 691 – Steward Observatory, Kitt Peak-Spacewatch MPS 118524
2004 10 15.31780 02 11 17.77 +17 08 54.3 19.9 V 691 – Steward Observatory, Kitt Peak-Spacewatch MPS 118524
2004 10 15.34478 02 11 16.22 +17 08 48.6 20.0 V 691 – Steward Observatory, Kitt Peak-Spacewatch MPS 118524
2004 10 15.37222 02 11 14.64 +17 08 42.9 20.1 V 691 – Steward Observatory, Kitt Peak-Spacewatch MPS 118524
2007 06 27.40497 20 38 30.86 -20 08 40.5 21.4 V 691 – Steward Observatory, Kitt Peak-Spacewatch MPS 211380
2007 06 27.42261 20 38 30.20 -20 08 43.0 21.6 V 691 – Steward Observatory, Kitt Peak-Spacewatch MPS 211380
2007 06 27.44026 20 38 29.56 -20 08 44.4 21.4 V 691 – Steward Observatory, Kitt Peak-Spacewatch MPS 211380
2008 12 30.26768 07 03 59.13 +25 14 26.9 19.6   704 – Lincoln Laboratory ETS, New Mexico MPS 271755
2008 12 30.28087 07 03 58.00 +25 14 25.9 19.9   704 – Lincoln Laboratory ETS, New Mexico MPS 271755
2008 12 30.29367 07 03 57.13 +25 14 27.2 19.5   704 – Lincoln Laboratory ETS, New Mexico MPS 271755
2008 12 30.30649 07 03 56.32 +25 14 28.5 19.7   704 – Lincoln Laboratory ETS, New Mexico MPS 271755
2008 12 30.31929 07 03 55.34 +25 14 28.7 19.8   704 – Lincoln Laboratory ETS, New Mexico MPS 271755
2010 05 18.405447 15 15 32.088 -21 46 12.44 20.72 r F51 – Pan-STARRS 1, Haleakala MPS 337320
2010 05 18.416386 15 15 31.392 -21 46 09.81 20.70 r F51 – Pan-STARRS 1, Haleakala MPS 337320
2010 08 06.09402 15 03 40.61 -19 42 57.1   C51 – WISE MPS 344852
2010 08 06.42485 15 03 56.60 -19 43 40.9   C51 – WISE MPS 344852
2010 08 06.62324 15 04 06.24 -19 44 10.8   C51 – WISE MPS 344852
2010 08 06.68933 15 04 09.51 -19 44 18.6   C51 – WISE MPS 344852
2010 08 07.08624 15 04 28.95 -19 45 13.6   C51 – WISE MPS 344852
2011 09 02.43174 23 48 21.520 +00 38 49.51 20.8 w F51 – Pan-STARRS 1, Haleakala MPS 390569
2011 09 02.44603 23 48 20.803 +00 38 46.34 20.8 w F51 – Pan-STARRS 1, Haleakala MPS 390569
2011 09 02.46036 23 48 20.074 +00 38 43.48 20.7 w F51 – Pan-STARRS 1, Haleakala MPS 390569
2011 09 02.47478 23 48 19.357 +00 38 40.10 20.7 w F51 – Pan-STARRS 1, Haleakala MPS 390569
2011 09 04.54083 23 46 38.038 +00 30 47.53 20.2 i F51 – Pan-STARRS 1, Haleakala MPS 391097
2011 09 04.55230 23 46 37.434 +00 30 44.80 20.3 i F51 – Pan-STARRS 1, Haleakala MPS 391097
2011 09 17.36849 23 35 00.337 -00 27 26.98 20.3 g F51 – Pan-STARRS 1, Haleakala MPS 391097
2011 09 17.36997 23 35 00.257 -00 27 27.34 20.5 g F51 – Pan-STARRS 1, Haleakala MPS 391097
2011 09 17.37147 23 35 00.161 -00 27 27.74 20.4 g F51 – Pan-STARRS 1, Haleakala MPS 391097
2011 09 17.37725 23 34 59.820 -00 27 29.38 20.6 g F51 – Pan-STARRS 1, Haleakala MPS 391097
2011 09 17.37874 23 34 59.721 -00 27 30.12 20.5 g F51 – Pan-STARRS 1, Haleakala MPS 391097
2011 09 17.38023 23 34 59.643 -00 27 30.53 20.4 g F51 – Pan-STARRS 1, Haleakala MPS 391097
2011 09 18.23781 23 34 10.92 -00 31 47.6 19.6 V G96 – Mt. Lemmon Survey MPS 391097
2011 09 18.24479 23 34 10.45 -00 31 49.6 20.0 V G96 – Mt. Lemmon Survey MPS 391097
2011 09 18.25184 23 34 10.05 -00 31 51.7 19.5 V G96 – Mt. Lemmon Survey MPS 391097
2011 09 18.25879 23 34 09.66 -00 31 53.8 19.8 V G96 – Mt. Lemmon Survey MPS 391097
2011 09 19.42992 23 33 02.939 -00 37 43.41 20.5 z F51 – Pan-STARRS 1, Haleakala MPS 391097
2011 09 19.43285 23 33 02.760 -00 37 44.26 20.5 z F51 – Pan-STARRS 1, Haleakala MPS 391097
2011 09 19.43579 23 33 02.591 -00 37 45.20 20.4 z F51 – Pan-STARRS 1, Haleakala MPS 391097
2011 09 19.44167 23 33 02.245 -00 37 46.99 20.6 z F51 – Pan-STARRS 1, Haleakala MPS 391097
2011 09 19.44461 23 33 02.061 -00 37 47.83 20.4 z F51 – Pan-STARRS 1, Haleakala MPS 391097
2011 09 19.44756 23 33 01.881 -00 37 48.70 20.5 z F51 – Pan-STARRS 1, Haleakala MPS 391097
2011 09 20.47748 23 32 03.356 -00 42 58.48 20.4 g F51 – Pan-STARRS 1, Haleakala MPS 391097
2011 09 20.47896 23 32 03.282 -00 42 58.96 20.5 g F51 – Pan-STARRS 1, Haleakala MPS 391097
2011 09 20.48047 23 32 03.191 -00 42 59.39 20.5 g F51 – Pan-STARRS 1, Haleakala MPS 391097
2011 09 20.48195 23 32 03.112 -00 42 59.55 20.6 g F51 – Pan-STARRS 1, Haleakala MPS 391097
2011 09 20.48344 23 32 03.023 -00 43 00.22 20.3 g F51 – Pan-STARRS 1, Haleakala MPS 391097
2011 09 20.48992 23 32 02.655 -00 43 02.10 20.1 r F51 – Pan-STARRS 1, Haleakala MPS 391097
2011 09 20.49140 23 32 02.546 -00 43 02.70 20.1 r F51 – Pan-STARRS 1, Haleakala MPS 391097
2011 09 20.49288 23 32 02.462 -00 43 02.99 20.2 r F51 – Pan-STARRS 1, Haleakala MPS 391097
2011 09 20.49588 23 32 02.282 -00 43 04.03 20.2 r F51 – Pan-STARRS 1, Haleakala MPS 391097
2011 09 20.49888 23 32 02.108 -00 43 04.95 20.2 r F51 – Pan-STARRS 1, Haleakala MPS 391097
2011 09 21.28619 23 31 18.097 -00 47 02.04 20.3 i F51 – Pan-STARRS 1, Haleakala MPS 391097
2011 09 21.29212 23 31 17.771 -00 47 03.70 20.3 i F51 – Pan-STARRS 1, Haleakala MPS 391097
2011 09 21.29512 23 31 17.593 -00 47 04.55 20.2 i F51 – Pan-STARRS 1, Haleakala MPS 391097
2011 09 21.29808 23 31 17.410 -00 47 05.48 20.3 i F51 – Pan-STARRS 1, Haleakala MPS 391097
2011 09 24.38607 23 28 24.456 -01 02 33.77 20.9 g F51 – Pan-STARRS 1, Haleakala MPS 392629
2011 09 24.38902 23 28 24.291 -01 02 34.57 20.9 g F51 – Pan-STARRS 1, Haleakala MPS 392629
2011 09 24.39197 23 28 24.116 -01 02 35.59 20.9 g F51 – Pan-STARRS 1, Haleakala MPS 392629
2011 09 24.39490 23 28 23.948 -01 02 36.37 20.8 g F51 – Pan-STARRS 1, Haleakala MPS 392629
